Data for 11/03/2016

Time Sea-Level Adjusted Pressure Absolute Pressure Temperature Relative Humidity Dew Point   
(mb) (inHg) (mb) (inHg) (C) (F) (%) (C) (F)
00:05 1028 30.36 857 25.31 5.4 41.7 44 -5.9 21.4
00:10 1028 30.36 857 25.31 4.8 40.7 46 -5.9 21.3
00:15 1028 30.36 857 25.31 4.6 40.3 45 -6.3 20.7
00:20 1027 30.33 857 25.31 4.8 40.7 45 -6.1 21
00:25 1028 30.36 857 25.31 4.9 40.8 43 -6.6 20.1
00:30 1028 30.36 857 25.31 5.7 42.2 41 -6.5 20.2
00:35 1028 30.36 857 25.31 5.7 42.2 43 -6 21.2
00:40 1028 30.36 857 25.31 5.1 41.2 46 -5.7 21.8
00:45 1028 30.36 857 25.31 4.8 40.6 46 -5.9 21.3
00:50 1028 30.36 857 25.31 4.7 40.5 46 -5.8 21.5
00:55 1028 30.36 857 25.31 4.6 40.2 46 -5.9 21.3
01:00 1028 30.36 857 25.31 4.9 40.7 46 -5.9 21.4
01:05 1028 30.36 857 25.31 4.9 40.9 46 -5.8 21.6
01:10 1028 30.36 857 25.31 5.1 41.1 45 -5.8 21.5
01:15 1028 30.36 857 25.31 5.1 41.2 45 -5.8 21.5
01:20 1028 30.36 857 25.31 5.2 41.4 46 -5.5 22
01:25 1028 30.36 857 25.31 4.9 40.8 47 -5.5 22.1
01:30 1028 30.36 857 25.31 4.7 40.4 48 -5.5 22.1
01:35 1028 30.36 857 25.31 4.6 40.3 48 -5.3 22.4
01:40 1028 30.36 857 25.31 4.4 39.9 46 -6.2 20.9
01:45 1028 30.36 857 25.31 5 41 45 -6 21.1
01:50 1028 30.36 857 25.31 5.1 41.2 45 -5.8 21.6
01:55 1028 30.36 857 25.31 5.3 41.5 44 -5.9 21.3
02:00 1028 30.36 857 25.31 5.4 41.8 45 -5.6 21.9
02:05 1028 30.36 857 25.31 5.1 41.2 47 -5.4 22.3
02:10 1028 30.36 857 25.31 4.9 40.8 47 -5.6 22
02:15 1028 30.36 857 25.31 4.7 40.5 47 -5.6 22
02:20 1028 30.36 857 25.31 4.7 40.4 48 -5.4 22.4
02:25 1028 30.36 857 25.31 4.2 39.5 51 -5.1 22.8
02:30 1028 30.36 857 25.31 3.6 38.4 51 -5.6 21.9
02:35 1028 30.36 857 25.31 3.7 38.6 51 -5.5 22.1
02:40 1028 30.36 857 25.31 3.7 38.7 51 -5.5 22.2
02:45 1028 30.36 857 25.31 3.7 38.7 51 -5.6 21.9
02:50 1028 30.36 857 25.31 4 39.2 47 -6.3 20.7
02:55 1028 30.36 857 25.31 4.3 39.7 48 -5.9 21.4
03:00 1028 30.36 857 25.31 4.4 40 48 -5.7 21.8
03:05 1028 30.36 857 25.31 4.3 39.8 49 -5.5 22
03:10 1028 30.36 857 25.31 3.9 39.1 50 -5.4 22.2
03:15 1028 30.36 857 25.31 3.6 38.5 51 -5.6 21.9
03:20 1028 30.36 857 25.31 3.6 38.4 51 -5.5 22.1
03:25 1028 30.36 857 25.31 3.7 38.6 51 -5.6 21.8
03:30 1028 30.36 857 25.31 3.9 39 50 -5.6 22
03:35 1028 30.36 857 25.31 4.1 39.3 49 -5.8 21.5
03:40 1028 30.36 857 25.31 4.2 39.5 49 -5.7 21.7
03:45 1028 30.36 857 25.31 3.9 39 50 -5.5 22
03:50 1028 30.36 857 25.31 3.5 38.4 50 -5.9 21.4
03:55 1028 30.36 857 25.31 3.3 37.9 53 -5.4 22.3
04:00 1028 30.36 857 25.31 2.6 36.8 55 -5.6 21.9
04:05 1028 30.36 857 25.31 3.3 38 48 -6.7 20
04:10 1028 30.36 857 25.31 4 39.2 49 -5.8 21.5
04:15 1028 30.36 857 25.31 3.8 38.8 51 -5.5 22
04:20 1028 30.36 857 25.31 3.5 38.3 51 -5.7 21.8
04:25 1028 30.36 857 25.31 3.8 38.9 49 -5.8 21.5
04:30 1028 30.36 857 25.31 3.8 38.8 51 -5.4 22.3
04:35 1028 30.36 858 25.34 3.5 38.4 51 -5.7 21.7
04:40 1028 30.36 858 25.34 3.6 38.4 51 -5.7 21.7
04:45 1028 30.36 858 25.34 3.8 38.8 49 -5.9 21.5
04:50 1028 30.36 858 25.34 3.8 38.8 50 -5.7 21.8
04:55 1029 30.39 858 25.34 3.3 38 52 -5.6 22
05:00 1028 30.36 858 25.34 2.7 36.8 54 -5.7 21.7
05:05 1028 30.36 858 25.34 2.6 36.7 55 -5.6 21.8
05:10 1029 30.39 858 25.34 2.6 36.7 53 -6 21.1
05:15 1028 30.36 858 25.34 3.3 38 51 -5.9 21.4
05:20 1029 30.39 858 25.34 3.7 38.6 50 -5.7 21.8
05:25 1029 30.39 858 25.34 3.3 38 53 -5.4 22.3
05:30 1028 30.36 858 25.34 2.7 36.9 55 -5.5 22.1
05:35 1028 30.36 858 25.34 2.7 36.9 54 -5.7 21.8
05:40 1029 30.39 858 25.34 2.7 36.8 56 -5.3 22.5
05:45 1028 30.36 858 25.34 2.1 35.8 58 -5.3 22.5
05:50 1028 30.36 858 25.34 1.8 35.2 58 -5.6 21.9
05:55 1028 30.36 858 25.34 2 35.7 57 -5.7 21.7
06:00 1028 30.36 858 25.34 2.3 36.1 56 -5.7 21.7
06:05 1028 30.36 858 25.34 2.8 37 52 -6.1 21.1
06:10 1029 30.39 858 25.34 3.2 37.8 54 -5.3 22.4
06:15 1029 30.39 858 25.34 2.4 36.4 58 -5.1 22.9
06:20 1029 30.39 858 25.34 2.3 36.1 53 -6.3 20.7
06:25 1029 30.39 858 25.34 3.1 37.6 52 -5.8 21.6
06:30 1029 30.39 858 25.34 3.2 37.8 52 -5.6 21.9
06:35 1029 30.39 858 25.34 3.1 37.5 53 -5.5 22.1
06:40 1029 30.39 858 25.34 2.8 37 56 -5.1 22.8
06:45 1029 30.39 858 25.34 2.2 35.9 58 -5.3 22.4
06:50 1029 30.39 858 25.34 2 35.7 59 -5.2 22.6
06:55 1029 30.39 858 25.34 2 35.7 55 -6.1 20.9
07:00 1029 30.39 858 25.34 2.8 37 52 -6 21.2
07:05 1029 30.39 858 25.34 3.2 37.8 52 -5.6 22
07:10 1029 30.39 858 25.34 3.3 37.9 52 -5.7 21.8
07:15 1029 30.39 858 25.34 3.3 37.9 52 -5.8 21.6
07:20 1029 30.39 858 25.34 3.1 37.5 55 -5.2 22.7
07:25 1029 30.39 858 25.34 2.4 36.3 55 -5.8 21.6
07:30 1029 30.39 858 25.34 2.8 37 53 -5.8 21.6
07:35 1029 30.39 858 25.34 2.6 36.6 56 -5.3 22.5
07:40 1029 30.39 858 25.34 2.3 36.1 57 -5.4 22.2
07:45 1029 30.39 858 25.34 2.4 36.4 56 -5.5 22.1
07:50 1029 30.39 859 25.37 2.6 36.8 55 -5.4 22.3
07:55 1029 30.39 859 25.37 2.7 36.9 54 -5.6 22
08:00 1029 30.39 859 25.37 3.1 37.5 53 -5.5 22
08:05 1030 30.42 859 25.37 3.3 38 53 -5.2 22.6
08:10 1030 30.42 859 25.37 2.9 37.2 56 -5.1 22.7
08:15 1030 30.42 859 25.37 2.3 36.1 56 -5.5 22.1
08:20 1030 30.42 859 25.37 2.5 36.5 55 -5.6 21.9
08:25 1030 30.42 859 25.37 2.8 37.1 55 -5.3 22.5
08:30 1030 30.42 859 25.37 3.5 38.3 52 -5.6 22
08:35 1030 30.42 859 25.37 3.6 38.4 52 -5.3 22.4
08:40 1030 30.42 859 25.37 3.5 38.2 54 -4.9 23.1
08:45 1030 30.42 859 25.37 3.2 37.8 54 -5.3 22.5
08:50 1030 30.42 859 25.37 3.3 37.9 52 -5.6 21.9
08:55 1030 30.42 859 25.37 3.6 38.5 54 -4.9 23.2
09:00 1030 30.42 859 25.37 3.6 38.5 55 -4.5 23.8
09:05 1030 30.42 859 25.37 3.5 38.4 55 -4.6 23.7
09:10 1030 30.42 859 25.37 3.8 38.9 54 -4.5 23.9
09:15 1030 30.42 859 25.37 4.2 39.6 53 -4.5 23.9
09:20 1030 30.42 859 25.37 4.7 40.4 52 -4.2 24.4
09:25 1030 30.42 859 25.37 5.2 41.3 51 -4.1 24.7
09:30 1030 30.42 859 25.37 5.6 42.2 49 -4.3 24.2
09:35 1030 30.42 859 25.37 6.3 43.3 46 -4.5 23.9
09:40 1030 30.42 859 25.37 6.3 43.4 46 -4.3 24.2
09:45 1030 30.42 859 25.37 6.4 43.6 46 -4.4 24.1
09:50 1030 30.42 859 25.37 6.6 43.9 46 -4.3 24.2
09:55 1030 30.42 859 25.37 6.8 44.3 44 -4.5 23.8
10:00 1030 30.42 859 25.37 7 44.5 44 -4.5 23.8
10:05 1030 30.42 859 25.37 7.2 45 42 -4.7 23.6
10:10 1030 30.42 859 25.37 7.3 45.2 43 -4.4 24.1
10:15 1030 30.42 859 25.37 7.6 45.6 43 -4.2 24.4
10:20 1030 30.42 859 25.37 7.8 46 41 -4.5 23.8
10:25 1030 30.42 859 25.37 8.1 46.5 41 -4.4 24.1
10:30 1030 30.42 859 25.37 8.3 46.9 40 -4.5 23.9
10:35 1030 30.42 859 25.37 8.6 47.5 41 -3.9 24.9
10:40 1030 30.42 859 25.37 8.8 47.9 47 -2 28.5
10:45 1030 30.42 859 25.37 8.8 47.8 50 -1.1 30
10:50 1030 30.42 859 25.37 8.3 46.9 53 -0.7 30.7
10:55 1030 30.42 860 25.4 7.5 45.4 55 -0.9 30.4
11:00 1030 30.42 860 25.4 7.3 45.1 53 -1.6 29.1
11:05 1030 30.42 860 25.4 6.9 44.5 53 -1.9 28.6
11:10 1030 30.42 860 25.4 7.2 45 52 -1.9 28.6
11:15 1030 30.42 860 25.4 7.4 45.2 52 -1.9 28.6
11:20 1030 30.42 860 25.4 7.7 45.8 51 -1.8 28.8
11:25 1031 30.45 860 25.4 7.8 46 49 -2.1 28.2
11:30 1031 30.45 860 25.4 8.2 46.7 46 -2.7 27.2
11:35 1031 30.45 860 25.4 8.7 47.7 43 -3 26.6
11:40 1031 30.45 860 25.4 9.2 48.5 41 -3.4 25.8
11:45 1031 30.45 860 25.4 9.5 49 40 -3.4 25.9
11:50 1030 30.42 860 25.4 9.9 49.7 41 -2.9 26.8
11:55 1030 30.42 860 25.4 9.8 49.6 40 -3.2 26.2
12:00 1030 30.42 860 25.4 10.2 50.3 38 -3.3 26
12:05 1030 30.42 860 25.4 10.2 50.4 39 -3.2 26.2
12:10 1030 30.42 859 25.37 10 50.1 40 -2.7 27.1
12:15 1030 30.42 859 25.37 9.8 49.7 39 -3.5 25.8
12:20 1030 30.42 859 25.37 10.9 51.5 36 -3.7 25.3
12:25 1030 30.42 859 25.37 10.8 51.5 37 -3.3 26.1
12:30 1030 30.42 859 25.37 10.9 51.7 34 -4.2 24.5
12:35 1030 30.42 859 25.37 11.5 52.8 33 -4.1 24.7
12:40 1030 30.42 859 25.37 11.7 53.1 33 -3.8 25.2
12:45 1030 30.42 859 25.37 11.9 53.4 33 -3.7 25.3
12:50 1030 30.42 859 25.37 12.2 53.9 33 -3.4 25.9
12:55 1030 30.42 859 25.37 11.8 53.2 35 -3.1 26.5
13:00 1030 30.42 859 25.37 10.9 51.5 36 -3.7 25.4
13:05 1030 30.42 859 25.37 11.8 53.2 32 -4.2 24.4
13:10 1030 30.42 859 25.37 12.8 55 31 -3.8 25.1
13:15 1030 30.42 859 25.37 12.6 54.6 32 -3.5 25.7
13:20 1030 30.42 859 25.37 12 53.5 32 -4.1 24.6
13:25 1030 30.42 859 25.37 12.3 54.2 33 -3.5 25.6
13:30 1030 30.42 859 25.37 12.2 53.9 31 -4.3 24.3
13:35 1029 30.39 859 25.37 12.6 54.7 30 -4.6 23.8
13:40 1029 30.39 859 25.37 13 55.4 29 -4.4 24.1
13:45 1029 30.39 859 25.37 13.7 56.7 29 -4.1 24.6
13:50 1029 30.39 859 25.37 13.9 56.9 28 -4.2 24.5
13:55 1029 30.39 859 25.37 14.2 57.6 28 -4 24.8
14:00 1029 30.39 859 25.37 14.5 58 27 -4.4 24
14:05 1029 30.39 858 25.34 14.7 58.4 26 -4.5 23.9
14:10 1029 30.39 858 25.34 14.8 58.6 26 -4.3 24.3
14:15 1029 30.39 858 25.34 14.7 58.4 29 -3.2 26.3
14:20 1029 30.39 858 25.34 14.4 57.9 29 -3.5 25.7
14:25 1029 30.39 858 25.34 14.2 57.5 29 -3.3 26.1
14:30 1029 30.39 858 25.34 13.8 56.8 30 -3.5 25.6
14:35 1029 30.39 858 25.34 14.4 57.8 29 -3.4 25.8
14:40 1029 30.39 858 25.34 14.7 58.5 29 -3.1 26.4
14:45 1029 30.39 858 25.34 14.4 57.9 31 -2.6 27.2
14:50 1029 30.39 858 25.34 13.9 57 31 -3.1 26.5
14:55 1029 30.39 858 25.34 14.3 57.7 29 -3.3 26
15:00 1029 30.39 858 25.34 14.9 58.9 28 -3.4 25.9
15:05 1029 30.39 858 25.34 14.9 58.9 28 -3.1 26.3
15:10 1029 30.39 858 25.34 14.9 58.8 29 -3 26.6
15:15 1029 30.39 858 25.34 14.8 58.6 29 -3.2 26.2
15:20 1029 30.39 858 25.34 14.8 58.7 29 -3.2 26.3
15:25 1029 30.39 858 25.34 14.7 58.5 29 -3.1 26.5
15:30 1029 30.39 858 25.34 14.7 58.5 29 -3.1 26.5
15:35 1029 30.39 858 25.34 14.4 58 29 -3.1 26.5
15:40 1029 30.39 858 25.34 14.3 57.7 30 -3 26.5
15:45 1029 30.39 858 25.34 14 57.2 30 -3.3 26.1
15:50 1029 30.39 858 25.34 14.1 57.5 29 -3.4 25.8
15:55 1029 30.39 858 25.34 14.5 58 30 -3 26.6
16:00 1029 30.39 858 25.34 14.4 57.9 29 -3.1 26.4
16:05 1029 30.39 858 25.34 14.5 58.1 29 -3.3 26
16:10 1029 30.39 858 25.34 14.4 57.9 29 -3.2 26.2
16:15 1029 30.39 858 25.34 14.3 57.8 29 -3.2 26.3
16:20 1029 30.39 858 25.34 14.1 57.5 29 -3.4 25.9
16:25 1029 30.39 858 25.34 14 57.3 30 -3.3 26
16:30 1029 30.39 858 25.34 13.7 56.7 30 -3.6 25.5
16:35 1029 30.39 858 25.34 13.7 56.6 29 -3.9 25
16:40 1029 30.39 858 25.34 13.6 56.4 30 -3.7 25.3
16:45 1029 30.39 858 25.34 13.5 56.2 30 -3.5 25.7
16:50 1029 30.39 858 25.34 13.2 55.8 31 -3.3 26
16:55 1029 30.39 858 25.34 12.9 55.3 32 -3.4 25.9
17:00 1029 30.39 858 25.34 12.6 54.7 33 -3.4 25.9
17:05 1029 30.39 858 25.34 12.2 54 33 -3.4 25.8
17:10 1029 30.39 858 25.34 11.9 53.5 34 -3.4 25.9
17:15 1029 30.39 858 25.34 11.8 53.2 35 -3.2 26.2
17:20 1029 30.39 858 25.34 11.6 52.8 36 -3.1 26.5
17:25 1029 30.39 858 25.34 11 51.9 40 -2.1 28.3
17:30 1029 30.39 858 25.34 10.1 50.2 45 -1.3 29.7
17:35 1029 30.39 858 25.34 9.3 48.7 49 -0.8 30.6
17:40 1029 30.39 858 25.34 8.8 47.8 51 -0.7 30.8
17:45 1029 30.39 858 25.34 8.4 47.1 53 -0.7 30.8
17:50 1029 30.39 858 25.34 8.1 46.6 54 -0.7 30.7
17:55 1029 30.39 858 25.34 7.8 46 55 -0.6 30.9
18:00 1029 30.39 858 25.34 7.4 45.3 55 -1 30.2
18:05 1029 30.39 858 25.34 7.7 45.8 53 -1.4 29.6
18:10 1029 30.39 858 25.34 7.7 45.8 53 -1.2 29.8
18:15 1029 30.39 858 25.34 7.5 45.5 55 -0.8 30.5
18:20 1029 30.39 858 25.34 7.1 44.8 55 -1.2 29.8
18:25 1029 30.39 858 25.34 7.4 45.3 53 -1.6 29.2
18:30 1029 30.39 858 25.34 7.7 45.9 53 -1.2 29.8
18:35 1029 30.39 858 25.34 7.5 45.4 55 -1.1 30.1
18:40 1029 30.39 858 25.34 7.1 44.7 56 -1.2 29.9
18:45 1029 30.39 858 25.34 6.9 44.4 56 -1.4 29.5
18:50 1029 30.39 858 25.34 6.8 44.3 55 -1.5 29.2
18:55 1029 30.39 858 25.34 7.1 44.7 54 -1.5 29.3
19:00 1029 30.39 858 25.34 7.1 44.8 54 -1.5 29.3
19:05 1029 30.39 858 25.34 7 44.6 53 -1.9 28.5
19:10 1029 30.39 858 25.34 7.2 45 53 -1.8 28.7
19:15 1029 30.39 858 25.34 7 44.6 54 -1.7 28.9
19:20 1029 30.39 858 25.34 6.8 44.2 54 -1.8 28.7
19:25 1029 30.39 858 25.34 6.7 44 55 -1.8 28.8
19:30 1029 30.39 858 25.34 6.8 44.2 53 -2 28.4
19:35 1029 30.39 858 25.34 6.9 44.5 53 -2.1 28.2
19:40 1029 30.39 858 25.34 7.1 44.7 52 -2 28.4
19:45 1029 30.39 858 25.34 7.1 44.8 52 -2.1 28.3
19:50 1029 30.39 858 25.34 7.1 44.8 52 -2 28.4
19:55 1029 30.39 858 25.34 6.9 44.5 52 -2.1 28.1
20:00 1029 30.39 858 25.34 6.9 44.5 51 -2.4 27.6
20:05 1029 30.39 858 25.34 7.1 44.8 51 -2.4 27.7
20:10 1029 30.39 858 25.34 7.1 44.7 52 -2.2 28
20:15 1029 30.39 858 25.34 7 44.6 51 -2.5 27.5
20:20 1028 30.36 858 25.34 7 44.5 50 -2.6 27.3
20:25 1028 30.36 858 25.34 7 44.6 50 -2.6 27.3
20:30 1028 30.36 858 25.34 7.1 44.7 49 -3 26.6
20:35 1028 30.36 858 25.34 7.4 45.4 47 -3.2 26.3
20:40 1028 30.36 858 25.34 7.6 45.7 46 -3.1 26.4
20:45 1028 30.36 858 25.34 7.7 45.8 45 -3.4 25.9
20:50 1029 30.39 858 25.34 8.1 46.5 47 -2.6 27.2
20:55 1029 30.39 858 25.34 8 46.4 46 -3 26.6
21:00 1029 30.39 858 25.34 7.9 46.3 46 -2.9 26.8
21:05 1029 30.39 858 25.34 7.9 46.3 46 -2.8 26.9
21:10 1029 30.39 858 25.34 7.8 46 46 -3 26.7
21:15 1029 30.39 858 25.34 7.8 46 46 -3 26.6
21:20 1029 30.39 858 25.34 7.9 46.3 45 -3.4 25.9
21:25 1029 30.39 858 25.34 8.1 46.6 45 -3.2 26.2
21:30 1028 30.36 858 25.34 7.8 46.1 47 -2.7 27.2
21:35 1028 30.36 858 25.34 7.1 44.8 47 -3.4 25.9
21:40 1028 30.36 858 25.34 7.3 45.2 48 -3 26.6
21:45 1028 30.36 858 25.34 7.1 44.8 47 -3.4 25.8
21:50 1028 30.36 858 25.34 7.2 45 48 -3.1 26.5
21:55 1028 30.36 858 25.34 6.9 44.5 48 -3.3 26
22:00 1028 30.36 857 25.31 6.7 44.1 51 -2.7 27.2
22:05 1028 30.36 857 25.31 6.3 43.4 51 -3.2 26.3
22:10 1028 30.36 857 25.31 6.6 43.8 50 -3 26.6
22:15 1028 30.36 857 25.31 7.1 44.8 48 -3.1 26.4
22:20 1028 30.36 858 25.34 6.8 44.2 51 -2.5 27.4
22:25 1028 30.36 858 25.34 6 42.8 53 -2.8 26.9
22:30 1028 30.36 857 25.31 6 42.9 51 -3.4 26
22:35 1028 30.36 857 25.31 6.4 43.6 51 -3.1 26.4
22:40 1028 30.36 857 25.31 6.5 43.8 49 -3.3 26.1
22:45 1028 30.36 857 25.31 6.6 43.8 50 -3 26.5
22:50 1028 30.36 857 25.31 6.5 43.8 49 -3.4 25.8
22:55 1028 30.36 857 25.31 6.4 43.5 53 -2.5 27.4
23:00 1028 30.36 857 25.31 5.9 42.6 52 -3.1 26.4
23:05 1028 30.36 857 25.31 6.1 43.1 47 -4.3 24.3
23:10 1028 30.36 857 25.31 7.1 44.8 49 -2.9 26.7
23:15 1028 30.36 857 25.31 6.8 44.2 49 -3.1 26.4
23:20 1028 30.36 857 25.31 6 42.9 51 -3.2 26.2
23:25 1028 30.36 857 25.31 5.5 41.9 53 -3.3 26
23:30 1028 30.36 857 25.31 5.4 41.7 51 -3.9 25
23:35 1028 30.36 857 25.31 6 42.8 51 -3.4 25.9
23:40 1028 30.36 857 25.31 5.5 41.9 53 -3.2 26.2
23:45 1028 30.36 857 25.31 5 41 54 -3.5 25.8
23:50 1028 30.36 857 25.31 5 41.1 53 -3.7 25.3
23:55 1028 30.36 857 25.31 5.4 41.7 51 -3.9 24.9
24:00 1028 30.36 857 25.31 5.8 42.4 49 -4 24.7